EW5523 Weather Reports


Display with metric or nautical units.
time (UTC)temp
F
wind
direction
speed
MPH
gust
MPH
rain 1hr
in
rain 24hr
in
rain mn
in
humidity
%
barometer
mb
20260902110059 70 204 0.0 3.0 0.00 0.00 0.00 68 1016.8
20260902104548 70 172 0.0 4.0 0.00 0.00 0.00 65 1016.9
20260902103058 70 246 0.0 5.0 0.00 0.00 0.00 66 1016.9
20260902101549 70 276 0.0 6.0 0.00 0.00 0.00 66 1017.0
20260902100045 69 266 0.0 4.0 0.00 0.00 0.00 68 1017.0
20260902094543 70 191 0.0 1.0 0.00 0.00 0.00 67 1017.1
20260902093042 69 152 0.0 0.0 0.00 0.00 0.00 72 1017.2
20260902091538 69 143 0.0 0.0 0.00 0.00 0.00 70 1017.3
20260902090035 68 236 0.0 3.0 0.00 0.00 0.00 71 1017.4
20260902084533 68 184 0.0 3.0 0.00 0.00 0.00 71 1017.4
20260902083037 68 185 0.0 1.0 0.00 0.00 0.00 72 1017.5
20260902081541 67 211 0.0 5.0 0.00 0.00 0.00 71 1017.6
20260902080042 67 201 0.0 5.0 0.00 0.00 0.00 73 1017.7
20260902074527 66 283 0.0 5.0 0.00 0.00 0.00 75 1017.7
20260902073031 66 273 0.0 3.0 0.00 0.00 0.00 75 1017.8
20260902071530 67 266 0.0 3.0 0.00 0.00 0.00 75 1017.8
20260902070022 66 249 0.0 4.0 0.00 0.00 0.00 78 1017.8
20260902064520 64 188 0.0 3.0 0.00 0.00 0.00 78 1017.8
20260902063018 64 186 0.0 5.0 0.00 0.00 0.00 79 1017.8
20260902061515 63 283 0.0 2.0 0.00 0.00 0.00 80 1017.8
20260902060017 63 243 0.0 3.0 0.00 0.00 0.00 81 1017.8
20260902054521 63 272 0.0 1.0 0.00 0.00 0.00 81 1017.9
20260902053011 62 216 0.0 0.0 0.00 0.00 0.00 83 1017.9
20260902051508 61 232 0.0 0.0 0.00 0.00 0.00 85 1017.9
20260902050007 60 276 0.0 1.0 0.00 0.00 0.00 85 1017.9
20260902044603 60 241 0.0 0.0 0.00 0.00 0.00 87 1017.9
20260902043058 58 281 0.0 0.0 0.00 0.00 0.00 91 1018.1
20260902041608 56 281 0.0 0.0 0.00 0.00 0.00 91 1018.1
20260902040056 57 226 0.0 0.0 0.00 0.00 0.00 93 1018.1
20260902034554 55 224 0.0 0.0 0.00 0.00 0.00 96 1018.1
20260902033054 53 102 0.0 0.0 0.00 0.00 0.00 97 1018.1
20260902031547 52 102 0.0 0.0 0.00 0.00 0.00 97 1018.1
20260902030049 51 102 0.0 0.0 0.00 0.00 0.00 96 1018.0
20260902024546 51 102 0.0 0.0 0.00 0.00 0.00 96 1017.9
20260902023048 52 102 0.0 0.0 0.00 0.00 0.00 97 1017.8
20260902021550 51 102 0.0 0.0 0.00 0.00 0.00 97 1017.8
20260902020046 50 102 0.0 0.0 0.00 0.00 0.00 96 1017.9
20260902014549 51 102 0.0 0.0 0.00 0.00 0.00 96 1017.7
20260902013044 50 102 0.0 0.0 0.00 0.00 0.00 95 1017.7
20260902011543 51 102 0.0 0.0 0.00 0.00 0.00 95 1017.8
20260902010042 51 102 0.0 0.0 0.00 0.00 0.00 95 1017.7
20260902004542 51 102 0.0 0.0 0.00 0.00 0.00 94 1017.7
20260902003042 51 102 0.0 0.0 0.00 0.00 0.00 94 1017.7
20260902001536 52 102 0.0 0.0 0.00 0.00 0.00 95 1017.8
20260902000034 52 102 0.0 0.0 0.00 0.00 0.00 95 1017.9
20260901234534 52 102 0.0 0.0 0.00 0.00 0.00 94 1018.0
20260901233034 53 102 0.0 0.0 0.00 0.00 0.00 94 1017.9
20260901231533 53 102 0.0 0.0 0.00 0.00 0.00 93 1017.9
20260901230036 54 102 0.0 0.0 0.00 0.00 0.00 95 1018.1
20260901224530 53 102 0.0 0.0 0.00 0.00 0.00 95 1018.1
20260901223029 53 101 0.0 0.0 0.00 0.00 0.00 94 1018.0
20260901221533 53 101 0.0 0.0 0.00 0.00 0.00 94 1018.0
20260901220052 53 101 0.0 0.0 0.00 0.00 0.00 94 1018.1
20260901214525 53 101 0.0 0.0 0.00 0.00 0.00 94 1018.2
20260901213056 53 101 0.0 0.0 0.00 0.00 0.00 93 1018.2
20260901211525 53 101 0.0 0.0 0.00 0.00 0.00 93 1018.2
20260901210024 53 101 0.0 0.0 0.00 0.00 0.00 93 1018.2
20260901204534 53 101 0.0 0.0 0.00 0.00 0.00 93 1018.3
20260901203044 53 101 0.0 0.0 0.00 0.00 0.00 93 1018.3
20260901201521 53 101 0.0 0.0 0.00 0.00 0.00 92 1018.3
20260901200019 53 101 0.0 0.0 0.00 0.00 0.00 92 1018.1
20260901194519 53 101 0.0 0.0 0.00 0.00 0.00 93 1018.2
20260901193018 53 101 0.0 0.0 0.00 0.00 0.00 92 1018.2
20260901191518 53 101 0.0 0.0 0.00 0.00 0.00 92 1018.2
20260901190016 53 101 0.0 0.0 0.00 0.00 0.00 92 1018.2
20260901184524 54 101 0.0 0.0 0.00 0.00 0.00 92 1018.2
20260901183014 54 101 0.0 0.0 0.00 0.00 0.00 93 1018.3
20260901181513 54 101 0.0 0.0 0.00 0.00 0.00 93 1018.3
20260901180013 54 101 0.0 0.0 0.00 0.00 0.00 93 1018.3
20260901174512 54 101 0.0 0.0 0.00 0.00 0.00 93 1018.3
20260901173011 54 101 0.0 0.0 0.00 0.00 0.00 93 1018.4
20260901171511 54 101 0.0 0.0 0.00 0.00 0.00 93 1018.4
20260901170009 54 101 0.0 0.0 0.00 0.00 0.00 93 1018.4
20260901164508 55 101 0.0 0.0 0.00 0.00 0.00 92 1018.5
20260901163009 55 101 0.0 0.0 0.00 0.00 0.00 91 1018.4
20260901161507 55 101 0.0 0.0 0.00 0.00 0.00 90 1018.4
20260901160003 55 101 0.0 0.0 0.00 0.00 0.00 90 1018.4
20260901154501 56 101 0.0 0.0 0.00 0.00 0.00 90 1018.4
20260901153058 56 101 0.0 0.0 0.00 0.00 0.00 90 1018.4
20260901151604 56 101 0.0 0.0 0.00 0.00 0.00 89 1018.3
20260901111521 59 117 0.0 0.0 0.00 0.00 0.00 78 1018.9